News.

Social Wall.

Suivez-nous sur les réseaux sociaux comme Facebook et Instagram pour découvrir des actualités inédites !

Facebook.
Comments Box SVG iconsUsed for the like, share, comment, and reaction icons

Manuel, Martin and Michael from Switzerland 🇨🇭…far away from the Alps for tremendous flights over the “montagne de Reims”😄👍 ... See MoreSee Less

Manuel, Martin and Michael from Switzerland 🇨🇭…far away from the Alps for tremendous flights over the “montagne de Reims”😄👍

Comment on Facebook

Probably the craziest experience of my life to feel 5g+. Great job team Fly & Fun, well done. Merci beaucoup!

Que des yeux rieurs ! 😃😀

Cathy from UK for a tremendous flight with a great moment of aerobatics!!!
The power of women👍👍
... See MoreSee Less

Cathy from UK for a tremendous flight with a great moment of aerobatics!!!
The power of women👍👍

Comment on Facebook

Thank you for the most amazing experience , it was totally awesome x

METAR :

LFQA 231830Z AUTO 25006KT 9999 BKN021 BKN028 BKN035 17/14 Q1003


vue en direct sur l'aérodrome
mentions légales politique de confidentialité
Cochet Concept
cx